Regional Weather Roundup
Issued by NWS Charleston, WV

Home | Current Version | Previous Version | Text Only | Print | Product List | Glossary Off
Versions: 1 2 3 4 5 6 7 8 9 10 11 12 13 14 15 16 17 18 19 20 21 22 23 24 25 26 27 28 29 30 31 32 33 34 35 36 37 38 39 40 41 42 43 44 45 46 47 48 49 50

954
ASUS41 KRLX 181910
RWRRLX
West Virginia Regional Weather Roundup
National Weather Service Charleston WV
300 PM EDT FRI AUG 18 2017

Note: "fair" indicates few or no clouds below 12,000 feet with no
significant weather and/or obstructions to visibility.

WVZ003-182000-
Northern Panhandle of West Virginia

CITY           SKY/WX    TMP DP  RH WIND       PRES   REMARKS
WHEELING       MOSUNNY   83  65  54 W15G25    29.84F
$$

WVZ009-182000-
Northwest West Virginia

CITY           SKY/WX    TMP DP  RH WIND       PRES   REMARKS
PARKERSBURG    MOSUNNY   84  70  62 W9        29.89S
$$

WVZ006-182000-
Western West Virginia

CITY           SKY/WX    TMP DP  RH WIND       PRES   REMARKS
HUNTINGTON     MOSUNNY   86  69  56 W9        29.89
$$

WVZ015-182000-
West Central West Virginia

CITY           SKY/WX    TMP DP  RH WIND       PRES   REMARKS
CHARLESTON     PTSUNNY   82  71  69 SW8       29.90S
$$

WVZ022-031-182000-
North Central West Virginia

CITY           SKY/WX    TMP DP  RH WIND       PRES   REMARKS
CLARKSBURG     MOSUNNY   84  70  62 W10       29.87F
MORGANTOWN     MOSUNNY   83  69  62 W7        29.87F
$$

WVZ025-035-042-045-182000-
Southern West Virginia

CITY           SKY/WX    TMP DP  RH WIND       PRES   REMARKS
BECKLEY        CLOUDY    78  68  71 W9        29.99F
LOGAN          CLOUDY    77  72  83 SW6       29.95F
BLUEFIELD      PTSUNNY   73  67  81 W6        30.03F
LEWISBURG      CLOUDY    75  70  84 SW8       29.98F
$$

WVZ047-182000-
Northern Mountains of West Virginia

CITY           SKY/WX    TMP DP  RH WIND       PRES   REMARKS
ELKINS         CLOUDY    75  69  81 SE7       29.94F
$$

WVZ052-182000-
Eastern Panhandle of West Virginia

CITY           SKY/WX    TMP DP  RH WIND       PRES   REMARKS
MARTINSBURG    LGT RAIN  79  73  82 S10G20    29.80S
PETERSBURG     LGT RAIN  78  74  87 W6        29.86F
$$




USA.gov is the U.S. government's official web portal to all federal, state and local government web resources and services.